Wind_Speed
18 14 8 6 16 29 41 50 55 58 60 62 63 70 83 95 103 110 116 116 115 112 108 104 99 94 89 84 79 76 75 74 72 70 67 65 65 63
15 11 8 6 11 21 31 41 49 54 56 60 61 65 76 88 96 103 111 115 114 112 109 105 101 96 90 84 80 76 74 73 72 70 68 66 65 65
15 12 9 8 10 16 25 34 42 48 53 56 59 62 70 80 90 97 105 112 114 113 111 107 103 99 92 87 80 75 73 73 74 71 69 67 66 65
17 15 12 11 11 15 20 28 35 42 48 52 56 59 65 73 83 91 99 107 113 113 112 109 106 102 97 90 81 77 75 72 73 73 70 68 66 64
17 14 12 11 12 14 18 23 29 36 42 47 51 55 59 66 75 84 93 102 110 113 112 111 108 105 101 94 86 81 76 70 69 69 66 66 65 64
16 12 10 9 10 12 16 20 24 30 36 41 46 50 54 61 69 78 87 98 107 112 113 112 110 108 105 100 92 85 79 72 67 64 59 57 59 61
15 10 7 5 7 8 11 16 21 26 31 36 40 45 50 56 65 74 82 92 102 109 112 112 110 109 107 102 99 91 84 78 72 68 59 52 51 53
14 10 7 3 1 4 7 12 17 21 26 31 36 40 45 52 60 69 77 87 97 107 110 111 109 108 107 103 100 94 86 80 74 70 63 55 51 48
15 12 8 5 3 3 5 9 13 18 22 27 31 36 42 49 57 65 73 82 92 103 108 108 107 104 104 103 101 97 87 80 75 70 67 61 55 51
16 13 11 8 6 5 5 7 10 14 19 24 28 33 40 47 54 61 68 75 85 96 104 105 104 102 100 99 97 94 89 83 77 72 69 64 56 51
17 14 12 11 9 7 6 6 7 11 16 21 26 32 39 46 53 59 64 70 78 89 99 102 100 96 94 93 92 88 85 80 75 71 68 64 58 53
18 15 13 12 11 9 8 7 6 9 13 18 25 31 39 46 52 56 60 65 72 82 93 98 98 93 89 88 86 84 81 77 72 68 66 63 60 56
18 15 13 12 11 10 9 8 7 7 10 16 23 31 39 45 50 54 56 60 66 76 86 93 95 92 87 85 82 81 78 74 71 68 64 62 60 58
19 15 13 11 11 11 10 9 8 7 9 14 22 30 38 44 48 51 52 54 60 68 78 87 91 90 87 83 81 79 76 73 70 67 64 62 61 59
21 16 12 11 10 10 10 10 9 8 8 13 21 29 36 42 46 48 48 50 54 61 69 79 85 86 84 82 80 79 77 74 71 68 66 64 62 60
24 17 12 10 9 9 9 10 10 9 9 13 20 28 35 40 44 45 44 46 49 55 62 70 78 82 81 78 76 76 77 76 72 69 67 64 61 60
30 21 14 10 9 8 8 9 9 10 11 14 19 26 33 38 41 42 42 42 45 50 57 65 72 76 78 75 72 72 74 74 73 71 68 64 61 61
37 26 17 11 8 7 7 8 8 10 11 14 19 24 30 35 39 40 40 40 42 47 53 60 66 71 73 71 69 68 71 73 73 72 69 65 63 61
39 32 22 14 8 6 6 6 8 9 11 14 18 22 28 33 36 38 39 39 40 45 50 55 60 66 71 70 68 67 67 70 71 70 68 65 64 63
37 35 29 19 11 6 4 5 7 9 11 14 17 21 25 30 33 36 37 37 38 42 47 51 56 62 67 69 67 67 67 67 69 69 69 67 65 63
35 35 33 26 17 9 3 4 6 8 11 13 16 19 23 26 30 33 35 36 38 41 45 49 53 58 62 67 67 67 67 66 67 67 67 66 66 64
33 33 33 31 23 14 6 2 5 8 11 13 16 18 20 23 26 30 33 36 38 41 45 50 52 55 59 64 66 66 66 66 66 66 66 65 64 62
32 32 32 33 29 21 11 3 4 8 11 14 16 18 20 21 23 26 30 33 37 41 45 49 53 56 59 61 63 64 64 65 65 65 65 65 63 61
Wind_Direction
2 0 345 266 230 222 221 220 220 221 224 228 227 222 218 215 213 210 208 206 205 205 205 205 205 205 207 209 212 215 218 219 220 223 224 227 228 228
340 339 327 285 240 226 222 220 219 220 222 226 228 223 218 215 213 211 208 205 204 204 204 204 204 204 205 207 210 213 215 217 219 221 223 225 227 228
315 308 294 272 246 231 224 222 220 219 220 224 227 224 218 214 212 210 208 205 203 203 203 203 203 203 203 205 208 211 213 215 217 219 222 224 225 227
306 297 284 266 249 234 227 223 220 219 219 222 226 224 218 213 211 210 208 205 203 202 202 202 203 203 203 204 205 209 211 212 212 216 219 221 222 222
311 298 283 268 251 236 227 222 220 219 218 220 223 222 217 212 209 208 207 205 203 201 201 202 202 203 203 203 205 207 209 209 209 211 215 217 216 217
327 312 292 269 252 237 226 221 218 217 216 217 220 220 215 210 207 205 205 204 203 201 200 201 203 203 204 205 204 206 209 209 208 208 210 210 211 213
343 336 321 284 252 234 223 217 214 213 213 214 216 216 212 207 203 202 203 203 203 201 200 201 203 205 206 206 206 207 210 213 214 213 214 212 209 210
3 4 2 349 241 209 206 203 202 204 205 207 210 210 207 203 200 200 200 202 202 201 200 201 203 206 207 208 208 209 212 215 218 219 218 217 215 213
18 23 31 44 73 130 171 184 189 194 197 200 204 204 201 198 196 196 198 201 202 201 200 200 202 206 209 210 210 210 212 215 217 219 222 223 223 221
27 33 42 55 72 97 131 156 176 187 190 194 197 198 195 193 192 193 196 199 201 202 201 200 202 205 209 211 212 213 213 215 217 220 222 224 225 223
32 40 49 60 69 84 106 129 153 173 183 188 190 190 188 187 188 190 193 197 200 201 202 201 201 204 208 211 212 213 213 215 217 218 219 222 223 221
34 43 53 62 69 78 88 102 129 156 175 183 185 184 183 182 184 187 191 195 199 201 202 201 201 203 205 209 211 212 212 213 213 215 216 217 219 220
33 42 52 62 70 77 82 89 109 139 164 177 179 179 179 179 181 184 188 192 197 199 201 202 201 202 203 205 208 209 208 209 210 211 212 213 214 216
31 40 51 62 71 77 82 86 98 126 153 171 174 175 175 176 178 182 185 189 194 198 201 202 202 201 201 204 206 207 206 206 207 209 210 211 211 213
29 37 47 58 69 77 84 90 97 115 142 164 171 172 172 173 176 180 183 187 191 196 201 202 202 202 202 204 206 207 207 207 207 208 209 210 211 213
28 34 42 52 65 79 86 93 99 111 131 155 167 169 170 171 174 177 181 184 188 193 198 201 203 204 203 204 205 207 208 208 209 209 209 210 211 213
27 29 36 46 58 74 89 99 105 114 128 147 162 168 170 171 173 176 179 182 185 190 195 198 200 203 203 203 204 205 207 209 210 211 212 212 213 214
25 26 29 37 52 69 88 103 115 122 133 146 158 166 171 173 175 178 179 181 184 187 192 197 200 202 203 203 201 202 205 207 209 211 214 215 215 216
24 25 27 30 43 65 88 107 121 131 140 151 160 167 173 176 178 180 182 183 185 187 190 195 199 202 203 203 202 201 202 205 207 210 211 213 214 215
23 25 27 29 33 51 92 118 132 140 147 156 165 171 176 180 183 185 187 187 188 189 190 193 197 200 204 204 205 203 201 202 205 207 209 210 212 214
22 24 25 27 29 35 70 140 153 157 159 162 168 174 179 184 188 190 192 193 192 192 191 192 195 198 202 204 204 204 203 203 203 205 207 209 211 212
21 23 24 24 25 27 34 143 178 178 176 175 176 178 182 186 190 195 197 198 198 196 194 192 193 195 198 202 205 206 206 206 205 205 205 207 209 211
19 21 22 23 24 23 21 14 202 197 192 189 187 186 186 189 193 197 200 201 202 201 198 196 193 193 194 198 201 202 205 207 207 207 207 207 207 208
Height
5279 5274 5271 5270 5272 5276 5282 5291 5302 5312 5322 5330 5339 5349 5363 5381 5402 5425 5451 5477 5504 5529 5553 5576 5597 5616 5633 5649 5664 5676 5688 5700 5712 5722 5732 5741 5750 5758
5280 5276 5273 5271 5271 5274 5278 5284 5293 5302 5312 5319 5328 5338 5351 5369 5388 5410 5436 5463 5490 5515 5539 5562 5583 5602 5621 5637 5652 5665 5676 5687 5700 5711 5721 5731 5740 5748
5278 5274 5272 5270 5270 5272 5275 5279 5286 5294 5303 5311 5318 5329 5342 5358 5377 5399 5423 5448 5474 5500 5524 5547 5568 5589 5607 5624 5639 5653 5664 5675 5687 5698 5709 5719 5729 5739
5275 5272 5270 5269 5268 5269 5272 5275 5281 5288 5296 5303 5311 5321 5334 5349 5368 5389 5411 5435 5460 5485 5510 5533 5554 5574 5593 5611 5626 5640 5652 5663 5674 5686 5697 5708 5719 5728
5272 5269 5267 5266 5266 5267 5269 5272 5276 5282 5290 5297 5305 5315 5328 5343 5360 5380 5401 5423 5447 5472 5496 5519 5540 5560 5579 5596 5613 5627 5640 5652 5663 5675 5685 5696 5707 5718
5269 5266 5264 5263 5263 5264 5266 5269 5273 5278 5285 5292 5300 5310 5322 5336 5352 5371 5391 5412 5435 5459 5482 5506 5527 5546 5565 5584 5601 5615 5628 5639 5651 5664 5676 5686 5697 5708
5267 5264 5263 5262 5262 5263 5264 5267 5270 5275 5281 5288 5296 5305 5317 5331 5346 5363 5382 5403 5425 5448 5471 5494 5516 5535 5551 5570 5587 5602 5616 5629 5642 5655 5668 5678 5689 5699
5269 5266 5264 5263 5262 5263 5264 5266 5269 5273 5279 5285 5293 5303 5314 5327 5342 5359 5377 5395 5418 5439 5461 5483 5503 5522 5539 5557 5575 5591 5606 5620 5633 5646 5659 5670 5681 5691
5272 5269 5267 5265 5265 5265 5266 5268 5270 5274 5279 5285 5292 5301 5312 5324 5339 5355 5371 5389 5410 5431 5453 5474 5495 5513 5529 5546 5564 5581 5597 5612 5625 5638 5650 5662 5674 5684
5277 5274 5271 5270 5269 5269 5270 5271 5273 5276 5279 5285 5292 5300 5310 5323 5337 5352 5368 5386 5405 5425 5445 5467 5486 5505 5521 5537 5554 5572 5589 5603 5617 5630 5643 5655 5667 5677
5283 5280 5277 5275 5274 5274 5274 5275 5276 5278 5282 5286 5292 5300 5310 5322 5335 5350 5365 5381 5399 5418 5437 5458 5478 5496 5513 5528 5545 5562 5579 5595 5609 5623 5636 5648 5660 5670
5289 5286 5283 5281 5280 5279 5279 5280 5281 5282 5285 5288 5294 5301 5311 5322 5335 5349 5363 5378 5394 5412 5430 5450 5470 5487 5504 5519 5535 5553 5570 5586 5601 5615 5627 5639 5651 5661
5296 5292 5290 5288 5286 5286 5285 5285 5286 5287 5289 5292 5297 5304 5313 5323 5336 5349 5362 5376 5391 5408 5425 5443 5462 5479 5497 5513 5528 5545 5563 5578 5593 5606 5619 5631 5642 5654
5302 5299 5296 5294 5293 5292 5291 5291 5291 5292 5294 5296 5301 5307 5315 5325 5337 5350 5362 5375 5389 5405 5420 5438 5456 5473 5491 5506 5521 5537 5554 5569 5584 5597 5610 5622 5633 5645
5309 5305 5303 5301 5299 5298 5297 5297 5297 5298 5299 5301 5305 5311 5319 5328 5339 5351 5363 5375 5388 5402 5416 5433 5450 5467 5483 5499 5514 5530 5546 5560 5575 5589 5601 5614 5625 5636
5316 5312 5309 5307 5305 5304 5303 5303 5303 5304 5305 5307 5310 5316 5323 5332 5342 5353 5364 5375 5387 5400 5413 5428 5445 5461 5477 5493 5508 5522 5538 5553 5567 5580 5593 5605 5617 5629
5322 5318 5314 5312 5311 5310 5309 5309 5309 5310 5311 5313 5316 5321 5328 5336 5346 5356 5366 5376 5387 5398 5410 5424 5439 5455 5471 5487 5501 5515 5530 5545 5559 5573 5585 5597 5608 5620
5330 5324 5320 5317 5316 5315 5314 5314 5314 5315 5317 5319 5322 5327 5333 5340 5349 5358 5367 5377 5387 5397 5408 5421 5435 5450 5465 5480 5494 5508 5521 5536 5550 5564 5577 5589 5601 5612
5337 5331 5325 5322 5320 5319 5319 5319 5319 5320 5322 5324 5327 5332 5337 5344 5351 5360 5368 5377 5386 5396 5406 5418 5430 5444 5459 5474 5486 5501 5515 5529 5542 5555 5568 5580 5592 5604
5345 5338 5331 5327 5324 5323 5323 5323 5324 5325 5326 5329 5332 5336 5341 5346 5353 5360 5368 5376 5385 5394 5404 5415 5426 5439 5453 5467 5481 5494 5507 5521 5534 5547 5559 5570 5582 5594
5350 5344 5337 5332 5328 5326 5325 5326 5327 5328 5330 5332 5335 5338 5343 5348 5354 5360 5368 5375 5383 5392 5401 5411 5421 5433 5446 5459 5472 5485 5499 5512 5525 5538 5550 5562 5573 5583
5355 5349 5343 5337 5332 5328 5327 5327 5328 5330 5331 5334 5337 5340 5344 5348 5353 5359 5366 5373 5380 5388 5397 5406 5417 5428 5440 5453 5465 5478 5491 5504 5516 5527 5540 5554 5565 5577
5360 5354 5348 5342 5336 5331 5329 5328 5328 5330 5332 5334 5337 5340 5343 5348 5352 5357 5363 5369 5376 5384 5392 5401 5411 5422 5433 5445 5458 5470 5483 5495 5507 5518 5530 5542 5554 5564